User: anonymous
Location: Unspecified
(0.0000°N, 0.0000°E)
Time: 13:20:19
(UTC+02:00)
Language:

BREEZE-M DEB (TANK) - Orbit

View from above orbital plane
View from above orbital plane
View from above satellite
View from above satellite

Ground track
Ground track

The orbit data is extracted from the following two-line orbital elements,

1 33374U 08044B   14292.39986172  .00002250  00000-0  62442-3 0  7649
2 33374 049.4277 244.3617 5457113 222.6563 339.6250 04.84546945106750
Epoch (UTC): 19 October 2014 09:35:48
Eccentricity: 0.5457113
inclination: 49.4277°
perigee height: 323 km
apogee height: 16424 km
right ascension of ascending node: 244.3617°
argument of perigee: 222.6563°
revolutions per day: 4.84546945
mean anomaly at epoch: 339.6250°
orbit number at epoch: 10675

The dashed part of the orbit path shows where the satellite is in the earth's shadow,  

DLR